Find Kosmos-1361

NORAD ID: 13164 Int'l Des: 1982-040 Owner: GUKOS Country: SU operational
LEOCIRCULAR

Aktuelle Ansicht

3D-Globus wird geladen...

Über Kosmos-1361

Beschreibung wird geladen...

Nächste Überflüge

Passes for default location (London). Set your location on the main map for personalized predictions.

Höhenverlauf

Loading altitude history...

Zweizeiliger Elementsatz

1 13164U 82040E 26150.87445499 -.00000005 00000-0 71539-4 0 9998
2 13164 74.0137 48.3943 0014504 200.6455 236.8681 12.48210589 7962
Epoch: 30. Mai 2026 • Age: 7 hours

Aktueller Status

Höhe 1485.9 km
Geschwindigkeit 7.12 km/s
Subsatellitenpunkt -9.05°S, 93.47°E
Startdatum 6. Mai 1982
Alter 44 years
Typ other

Technische Details

Klassifizierung Payload
Masse 60.00 kg
Trockenmasse 60.00 kg
Gesamtmasse 60.00 kg
Länge 0.80 m
Durchmesser 0.80 m
Spannweite 0.80 m
Form Poly
Hersteller NPOPM
Bus-Typ Strela-1 11F625
Phasenstatus In Orbit
Besitzer/Staat GUKOS/SU

Most Searched